364  
NZUS59 KLOT 271808  
HRRLOT  
 
CHICAGO AREA WEATHER ROUNDUP  
NATIONAL WEATHER SERVICE CHICAGO/ROMEOVILLE IL  
100 PM CDT THU APR 27 2017  
 
NOTE: "FAIR" INDICATES FEW OR NO CLOUDS BELOW 12,000 FEET WITH NO  
SIGNIFICANT WEATHER AND/OR OBSTRUCTIONS TO VISIBILITY.  
 
* THESE STATIONS ARE NOT UNDER NWS QUALITY CONTROL. THEY ALSO MAY NOT  
REPORT WEATHER SUCH AS PRECIPITATION OR FOG.  
 
ILZ005-006-012>014-019>023-271900-  
NORTHEAST ILLINOIS  
 
CITY SKY/WX TMP DP RH WIND PRES REMARKS  
OHARE CLOUDY 46 37 71 W17G29 29.60R  
6HR MIN TEMP: 44; 6HR MAX TEMP: 52; 6HR PCP: 0.01;  
 
MIDWAY CLOUDY 46 38 73 W17G26 29.62R  
6HR MIN TEMP: 45; 6HR MAX TEMP: 53; 6HR PCP: TRACE;  
 
AURORA CLOUDY 45 39 79 SW16G25 29.62R  
6HR MIN TEMP: 44; 6HR MAX TEMP: 46; 6HR PCP: 0.02;  
 
LANSING* CLOUDY 46 40 81 W17G24 29.64R  
JOLIET* CLOUDY 47 40 77 SW13G21 29.64S  
WAUKEGAN CLOUDY 46 37 71 VRB7G18 29.56R  
6HR MIN TEMP: 45; 6HR MAX TEMP: 52; 6HR PCP: 0.04;  
 
DUPAGE AIRPORT CLOUDY 44 40 85 W18 29.61R  
6HR MIN TEMP: 43; 6HR MAX TEMP: 47; 6HR PCP: 0.02;  
 
WHEELING CLOUDY 45 38 76 SW15G23 29.60R  
6HR MIN TEMP: 45; 6HR MAX TEMP: 54; 6HR PCP: 0.02;  
 
KANKAKEE* CLOUDY 47 39 73 W17G25 29.67R  
MORRIS* CLOUDY 44 39 81 SW17 29.64R  
LEWIS AIRPORT* CLOUDY 45 42 90 W18 29.63R  
NORTHERLY ISL N/A 45 36 70 SW18 N/A  

 
 
WIZ051-052-058>065-066-070>072-271900-  
SOUTHEAST WISCONSIN  
 
CITY SKY/WX TMP DP RH WIND PRES REMARKS  
MILWAUKEE CLOUDY 44 36 73 W16G25 29.54R  
6HR MIN TEMP: 44; 6HR MAX TEMP: 50; 6HR PCP: 0.06;  
 
KENOSHA* CLOUDY 45 36 70 W24 29.56R  
RACINE* CLOUDY 45 34 65 W20G26 29.57R  
WAUKESHA CLOUDY 37 34 87 W17G23 29.54R  
WEST BEND CLOUDY 37 36 93 W17G25 29.50R  

 
 
INZ001>003-010>013-019-020-271900-  
NORTHWEST INDIANA  
 
CITY SKY/WX TMP DP RH WIND PRES REMARKS  
GARY* CLOUDY 48 37 66 SW17G35 29.63R  
MICHIGAN CITY* NOT AVBL  
RENSSELAER* NOT AVBL  
VALPARAISO CLOUDY 48 41 76 W20 29.64R  

 
 
LMZ740>746-271900-  
SOUTHERN LAKE MICHIGAN  
 
STATION/POSITION TIME SKY/WX TEMP WIND PRES VSBY  
AIR DIR/SP/G  
(UTC) (F) (DEG/KT/KT) (MB) (MI)  
HARRISON CRIB 1730 45 240/ 23/ 30 N/A  
BURNHAM HARBOR 1800 45 250/ 11/ 19 N/A  
CALUMET HARBOR 1748 45 250/ 10/ 17 1002.7R  
BURNS HARBOR 1740 47 260/ 23/ 26 1003.4R  
MICHIGAN CITY 1740 46 240/ 29/ 31 N/A  

 
 
ABBREVIATIONS USED IN REMARKS  
TC - TEMPERATURE IN CELSIUS  
WCI - WIND CHILL INDEX  
HX - HEAT INDEX  
VSB - VISIBILITY  

 
 
 
CLICK HERE TO GO TO PREVIOUS BULLETINS.

The Nexlab IL Page
The Nexlab IN Page Main Text Page